Eagle River, WI

5:49 AM CDT on March 26, 2017 (GMT -0500)
Eagle River Union

Weather History for KEGV - September, 2014

Change the Weather History Date:

Thursday, September 11, 2014

  Actual Average Record
Temperature  
Mean Temperature 40 °F -  
Max Temperature 50 °F 66 °F 95 °F (1998)
Min Temperature 30 °F 46 °F 30 °F (2014)
Degree Days  
Heating Degree Days 26    
Moisture  
Dew Point 35 °F    
Average Humidity 80    
Maximum Humidity 100    
Minimum Humidity 51    
Precipitation  
Precipitation 0.00 in - - ()
Sea Level Pressure  
Sea Level Pressure 30.19 in    
Wind  
Wind Speed 9 mph (North)    
Max Wind Speed 15 mph    
Max Gust Speed 23 mph    
Visibility 10 miles    
Events Rain    
Averages and records for this station are not official NWS values.
T = Trace of Precipitation, MM = Missing Value Source: NWS Daily Summary

Daily Weather History Graph

Daily Weather History Graph

Search for Another Location

Airport or City:

Trip Planner

Search our weather history database for the weather conditions in past years. The results will help you decide how hot, cold, wet, or windy it might be!

Date:

Astronomy

Sep. 11, 2014 Rise Set
Actual Time 6:30 AM CDT 7:16 PM CDT
Civil Twilight 6:00 AM CDT 7:46 PM CDT
Nautical Twilight 5:24 AM CDT 8:22 PM CDT
Astronomical Twilight 4:46 AM CDT 8:59 PM CDT
Moon 8:42 PM CDT (9/11) 9:38 AM CDT (9/11)
Length of Visible Light 13h 46m
Length of Day
12h 45m
Waning Gibbous, 90% of the Moon is Illuminated
Sep 11
Waning Gibbous
Sep 15
Last Quarter
Sep 24
New
Oct 1
First Quarter
Oct 8
Full

Hourly Weather History & Observations

Time (CDT) Temp. Windchill Dew Point Humidity Pressure Visibility Wind Dir Wind Speed Gust Speed Precip Events Conditions
12:15 AM 37.9 °F 30.5 °F 36.9 °F 96% 29.98 in 10.0 mi North 11.5 mph - N/A   Light Drizzle
12:35 AM 38.1 °F 29.8 °F 36.7 °F 95% 29.99 in 10.0 mi North 13.8 mph 20.7 mph N/A   Light Drizzle
12:55 AM 38.3 °F 30.5 °F 36.7 °F 94% 30.00 in 10.0 mi North 12.7 mph 21.9 mph N/A   Overcast
1:15 AM 37.9 °F 30.5 °F 36.9 °F 96% 30.00 in 10.0 mi North 11.5 mph 16.1 mph N/A   Light Drizzle
1:35 AM 37.9 °F 30.9 °F 36.9 °F 96% 30.01 in 10.0 mi NNE 10.4 mph 17.3 mph N/A   Overcast
1:55 AM 38.3 °F 31.4 °F 36.9 °F 95% 30.01 in 7.0 mi North 10.4 mph 23.0 mph N/A   Light Drizzle
2:15 AM 38.3 °F 30.9 °F 37.2 °F 96% 30.01 in 10.0 mi North 11.5 mph 20.7 mph N/A   Overcast
2:35 AM 38.7 °F 32.4 °F 36.5 °F 92% 30.02 in 10.0 mi North 9.2 mph 21.9 mph N/A   Overcast
2:55 AM 38.7 °F 32.4 °F 36.5 °F 92% 30.02 in 10.0 mi North 9.2 mph 20.7 mph N/A   Overcast
3:15 AM 38.8 °F 31.6 °F 36.3 °F 91% 30.03 in 10.0 mi North 11.5 mph 20.7 mph N/A   Overcast
3:35 AM 38.8 °F 32.6 °F 36.5 °F 91% 30.03 in 10.0 mi North 9.2 mph 17.3 mph N/A   Overcast
3:55 AM 39.2 °F 33.0 °F 35.4 °F 86% 30.05 in 10.0 mi North 9.2 mph - N/A   Overcast
4:15 AM 39.2 °F 32.0 °F 35.1 °F 85% 30.05 in 10.0 mi North 11.5 mph 20.7 mph N/A   Overcast
4:35 AM 39.4 °F 33.2 °F 35.6 °F 86% 30.07 in 10.0 mi North 9.2 mph - N/A   Overcast
5:15 AM 39.6 °F 33.5 °F 34.7 °F 83% 30.09 in 10.0 mi North 9.2 mph 17.3 mph N/A   Overcast
5:35 AM 39.4 °F 33.8 °F 35.6 °F 86% 30.09 in 10.0 mi North 8.1 mph 17.3 mph N/A   Overcast
5:55 AM 38.8 °F 34.6 °F 36.0 °F 89% 30.09 in 10.0 mi North 5.8 mph - N/A   Overcast
6:15 AM 38.8 °F 35.4 °F 35.6 °F 88% 30.09 in 10.0 mi North 4.6 mph - N/A   Overcast
6:35 AM 39.4 °F 35.2 °F 34.7 °F 83% 30.10 in 10.0 mi North 5.8 mph - N/A   Overcast
6:55 AM 39.4 °F 33.8 °F 35.6 °F 86% 30.08 in 10.0 mi North 8.1 mph - N/A   Overcast
7:15 AM 39.7 °F 33.7 °F 35.2 °F 84% 30.10 in 10.0 mi North 9.2 mph - N/A   Overcast
7:35 AM 40.3 °F 34.4 °F 35.8 °F 84% 30.12 in 10.0 mi North 9.2 mph - N/A   Overcast
7:55 AM 40.6 °F 32.7 °F 36.0 °F 83% 30.16 in 10.0 mi North 15.0 mph - N/A   Overcast
8:15 AM 41.0 °F 35.2 °F 36.7 °F 85% 30.18 in 10.0 mi North 9.2 mph - N/A   Overcast
8:35 AM 41.2 °F 36.0 °F 37.2 °F 86% 30.17 in 10.0 mi North 8.1 mph - N/A   Overcast
8:55 AM 41.4 °F 34.7 °F 35.8 °F 81% 30.17 in 10.0 mi North 11.5 mph 21.9 mph N/A   Overcast
9:35 AM 42.1 °F 36.1 °F 34.2 °F 74% 30.18 in 10.0 mi NNE 10.4 mph 18.4 mph N/A   Overcast
9:55 AM 43.0 °F 37.2 °F 35.2 °F 74% 30.20 in 10.0 mi North 10.4 mph - N/A   Overcast
10:15 AM 43.3 °F 37.7 °F 35.1 °F 73% 30.21 in 10.0 mi NNE 10.4 mph 17.3 mph N/A   Overcast
10:35 AM 45.5 °F 39.9 °F 34.5 °F 65% 30.20 in 10.0 mi NE 11.5 mph 16.1 mph N/A   Overcast
10:55 AM 44.1 °F 37.7 °F 34.2 °F 68% 30.21 in 10.0 mi North 12.7 mph 16.1 mph N/A   Overcast
11:15 AM 45.7 °F 40.2 °F 34.0 °F 64% 30.21 in 10.0 mi NNE 11.5 mph 17.3 mph N/A   Overcast
11:35 AM 45.7 °F 41.0 °F 34.9 °F 66% 30.22 in 10.0 mi North 9.2 mph - N/A   Overcast
12:15 PM 45.5 °F 39.9 °F 34.7 °F 66% 30.22 in 10.0 mi NNW 11.5 mph - N/A   Overcast
12:35 PM 46.4 °F 42.9 °F 34.5 °F 63% 30.21 in 10.0 mi North 6.9 mph 16.1 mph N/A   Overcast
12:55 PM 49.3 °F - 34.7 °F 57% 30.21 in 10.0 mi NNE 11.5 mph 21.9 mph N/A   Mostly Cloudy
1:15 PM 43.7 °F 38.6 °F 36.1 °F 75% 30.22 in 7.0 mi North 9.2 mph 19.6 mph N/A Rain Rain
1:35 PM 46.9 °F - 37.6 °F 70% 30.21 in 10.0 mi NNE 8.1 mph - N/A   Mostly Cloudy
1:55 PM 48.0 °F - 35.1 °F 61% 30.22 in 10.0 mi NNE 11.5 mph 18.4 mph N/A   Light Drizzle
2:15 PM 47.5 °F - 32.5 °F 56% 30.22 in 10.0 mi North 8.1 mph - N/A Rain Light Rain
2:35 PM 47.8 °F - 32.5 °F 55% 30.22 in 10.0 mi North 5.8 mph - N/A   Overcast
2:55 PM 48.4 °F - 33.4 °F 56% 30.23 in 10.0 mi North 13.8 mph 17.3 mph N/A   Overcast
3:15 PM 49.6 °F - 32.0 °F 51% 30.22 in 10.0 mi NNW 6.9 mph - N/A   Overcast
3:35 PM 47.7 °F - 32.7 °F 56% 30.23 in 10.0 mi North 10.4 mph - N/A   Mostly Cloudy
3:55 PM 48.2 °F - 32.0 °F 54% 30.24 in 10.0 mi NNW 11.5 mph 20.7 mph N/A   Mostly Cloudy
4:15 PM 48.2 °F - 31.6 °F 53% 30.24 in 10.0 mi NNW 5.8 mph - N/A   Mostly Cloudy
4:35 PM 47.1 °F - 31.6 °F 55% 30.24 in 10.0 mi North 10.4 mph - N/A   Overcast
4:55 PM 46.8 °F - 32.4 °F 57% 30.25 in 10.0 mi North 12.7 mph - N/A   Overcast
5:15 PM 46.6 °F - 33.4 °F 60% 30.26 in 10.0 mi NNW 9.2 mph - N/A   Overcast
5:35 PM 47.1 °F - 34.0 °F 60% 30.26 in 10.0 mi NNW 12.7 mph - N/A   Overcast
5:55 PM 44.8 °F 40.4 °F 34.7 °F 68% 30.27 in 10.0 mi North 8.1 mph - N/A   Scattered Clouds
6:15 PM 45.5 °F 41.8 °F 32.4 °F 60% 30.27 in 10.0 mi North 6.9 mph - N/A   Scattered Clouds
6:35 PM 43.2 °F 37.4 °F 33.6 °F 69% 30.28 in 10.0 mi NNW 10.4 mph - N/A   Scattered Clouds
6:55 PM 42.4 °F 38.8 °F 34.0 °F 72% 30.28 in 10.0 mi North 5.8 mph - N/A   Scattered Clouds
7:15 PM 40.5 °F - 33.1 °F 75% 30.27 in 10.0 mi Calm Calm - N/A   Clear
7:35 PM 39.6 °F - 33.3 °F 78% 30.28 in 10.0 mi Calm Calm - N/A   Clear
7:55 PM 37.6 °F - 35.8 °F 93% 30.29 in 10.0 mi Calm Calm - N/A   Clear
8:15 PM 37.4 °F - 36.3 °F 96% 30.30 in 10.0 mi Calm Calm - N/A   Clear
8:35 PM 36.3 °F - 36.0 °F 99% 30.31 in 10.0 mi Calm Calm - N/A   Clear
8:55 PM 33.8 °F - 33.8 °F 100% 30.31 in 10.0 mi Calm Calm - N/A   Clear
9:15 PM 35.4 °F - 35.4 °F 100% 30.32 in 10.0 mi Calm Calm - N/A   Clear
9:35 PM 33.4 °F - 33.4 °F 100% 30.32 in 10.0 mi Calm Calm - N/A   Clear
9:55 PM 32.9 °F - 32.9 °F 100% 30.32 in 10.0 mi Calm Calm - N/A   Clear
10:15 PM 32.4 °F - 32.4 °F 100% 30.31 in 5.0 mi Calm Calm - N/A   Clear
10:35 PM 30.9 °F - 30.9 °F 100% 30.32 in 10.0 mi Calm Calm - N/A   Clear
10:55 PM 32.0 °F - 32.0 °F 100% 30.32 in 3.0 mi Calm Calm - N/A   Scattered Clouds
11:15 PM 31.3 °F - 31.3 °F 100% 30.32 in 10.0 mi Calm Calm - N/A   Clear
11:35 PM 31.8 °F - 31.8 °F 100% 30.33 in 10.0 mi Calm Calm - N/A   Clear
11:55 PM 31.6 °F - 31.6 °F 100% 30.33 in 10.0 mi Calm Calm - N/A   Clear